When you browse on this site, cookies collect data to enhance your experience and personalize the content and advertising you see.
Visit our Privacy Policy to learn more. By continuing to use the site, you agree to this use of cookies and data.
  • In Hungary
  • List of Countries
  • For 7 days
  • Water Temperature
  • Weather Map
  • News
  • Weather Widgets
  • user-avatar
    Login

    Hourly Weather Leopoldowo

    Today, 22 August, Thursday

    Time Temperature Precipitation Wind Pressure Humidity
    00:00 +14°C° 0 mm 2 mps 760 mmHg 92%
    01:00 +13°C° 0 mm 2 mps 760 mmHg 93%
    02:00 +13°C° 0 mm 2 mps 760 mmHg 93%
    03:00 +13°C° 0 mm 2 mps 760 mmHg 93%
    04:00 +12°C° 0 mm 2 mps 760 mmHg 92%
    05:00 +13°C° 0 mm 1 mps 760 mmHg 87%
    06:00 +15°C° 0 mm 1 mps 761 mmHg 82%
    07:00 +16°C° 0 mm 1 mps 761 mmHg 77%
    08:00 +18°C° 0 mm 1 mps 761 mmHg 70%
    09:00 +19°C° 0 mm 1 mps 761 mmHg 63%
    10:00 +20°C° 0 mm 2 mps 761 mmHg 56%
    11:00 +21°C° 0 mm 1 mps 761 mmHg 53%
    12:00 +22°C° 0 mm 1 mps 761 mmHg 50%
    13:00 +23°C° 0 mm 1 mps 761 mmHg 47%
    14:00 +23°C° 0 mm 1 mps 761 mmHg 48%
    15:00 +23°C° 0 mm 1 mps 760 mmHg 49%
    16:00 +23°C° 0 mm 1 mps 760 mmHg 49%
    17:00 +21°C° 0 mm 1 mps 760 mmHg 55%
    18:00 +19°C° 0 mm 1 mps 760 mmHg 61%
    19:00 +16°C° 0 mm 1 mps 760 mmHg 67%
    20:00 +16°C° 0 mm 1 mps 760 mmHg 70%
    21:00 +15°C° 0 mm 1 mps 761 mmHg 73%
    22:00 +14°C° 0 mm 1 mps 761 mmHg 75%
    23:00 +14°C° 0 mm 1 mps 761 mmHg 77%

    Tomorrow, 23 August, Friday

    Time Temperature Precipitation Wind Pressure Humidity
    00:00 +14°C° 0 mm 1 mps 761 mmHg 78%
    01:00 +13°C° 0 mm 1 mps 761 mmHg 80%
    02:00 +13°C° 0 mm 1 mps 761 mmHg 81%
    03:00 +13°C° 0 mm 1 mps 761 mmHg 83%
    04:00 +12°C° 0 mm 1 mps 760 mmHg 85%
    05:00 +14°C° 0 mm 1 mps 760 mmHg 80%
    06:00 +15°C° 0 mm 1 mps 761 mmHg 75%
    07:00 +18°C° 0 mm 1 mps 761 mmHg 70%
    08:00 +19°C° 0 mm 1 mps 761 mmHg 65%
    09:00 +21°C° 0 mm 1 mps 761 mmHg 59%
    10:00 +21°C° 0 mm 2 mps 761 mmHg 54%
    11:00 +23°C° 0 mm 2 mps 761 mmHg 51%
    12:00 +24°C° 0 mm 1 mps 760 mmHg 48%
    13:00 +24°C° 0 mm 1 mps 760 mmHg 45%
    14:00 +24°C° 0 mm 1 mps 760 mmHg 45%
    15:00 +24°C° 0 mm 1 mps 760 mmHg 46%
    16:00 +24°C° 0 mm 1 mps 759 mmHg 47%
    17:00 +22°C° 0 mm 1 mps 759 mmHg 52%
    18:00 +21°C° 0 mm 1 mps 759 mmHg 57%
    19:00 +19°C° 0 mm 1 mps 759 mmHg 63%
    20:00 +18°C° 0 mm 1 mps 759 mmHg 64%
    21:00 +16°C° 0 mm 1 mps 759 mmHg 65%
    22:00 +16°C° 0 mm 1 mps 759 mmHg 66%
    23:00 +15°C° 0 mm 1 mps 759 mmHg 68%

    Day after tomorrow, 24 August, Saturday

    Time Temperature Precipitation Wind Pressure Humidity
    00:00 +15°C° 0 mm 1 mps 759 mmHg 70%
    01:00 +14°C° 0 mm 1 mps 759 mmHg 72%
    02:00 +14°C° 0 mm 1 mps 759 mmHg 74%
    03:00 +14°C° 0 mm 1 mps 759 mmHg 77%
    04:00 +14°C° 0 mm 1 mps 759 mmHg 79%
    05:00 +15°C° 0 mm 1 mps 759 mmHg 76%
    06:00 +18°C° 0 mm 1 mps 759 mmHg 73%
    07:00 +19°C° 0 mm 1 mps 759 mmHg 70%
    08:00 +21°C° 0 mm 1 mps 759 mmHg 65%
    09:00 +23°C° 0 mm 1 mps 759 mmHg 59%
    10:00 +24°C° 0 mm 1 mps 759 mmHg 54%
    11:00 +25°C° 0 mm 1 mps 759 mmHg 51%
    12:00 +26°C° 0 mm 1 mps 759 mmHg 48%
    13:00 +26°C° 0 mm 1 mps 758 mmHg 45%
    14:00 +26°C° 0 mm 1 mps 758 mmHg 46%
    15:00 +26°C° 0 mm 2 mps 758 mmHg 47%
    16:00 +26°C° 0 mm 2 mps 758 mmHg 47%
    17:00 +24°C° 0 mm 2 mps 758 mmHg 53%
    18:00 +21°C° 0 mm 2 mps 758 mmHg 58%
    19:00 +19°C° 0 mm 2 mps 758 mmHg 64%
    20:00 +18°C° 0 mm 2 mps 758 mmHg 65%
    21:00 +18°C° 0 mm 2 mps 758 mmHg 67%
    22:00 +17°C° 0 mm 2 mps 758 mmHg 68%
    23:00 +16°C° 0 mm 2 mps 758 mmHg 71%

    25 August, Sunday

    Time Temperature Precipitation Wind Pressure Humidity
    00:00 +16°C° 0 mm 2 mps 758 mmHg 74%
    01:00 +16°C° 0 mm 2 mps 758 mmHg 77%
    02:00 +15°C° 0 mm 2 mps 758 mmHg 79%
    03:00 +15°C° 0 mm 2 mps 758 mmHg 80%
    04:00 +15°C° 0 mm 2 mps 758 mmHg 81%
    05:00 +16°C° 0 mm 2 mps 758 mmHg 78%
    06:00 +17°C° 0 mm 2 mps 758 mmHg 74%
    07:00 +18°C° 0 mm 3 mps 758 mmHg 71%
    08:00 +20°C° 0 mm 3 mps 758 mmHg 66%
    09:00 +22°C° 0 mm 3 mps 758 mmHg 60%
    10:00 +25°C° 0 mm 4 mps 758 mmHg 54%
    11:00 +25°C° 0 mm 4 mps 758 mmHg 52%
    12:00 +26°C° 0 mm 4 mps 758 mmHg 50%
    13:00 +27°C° 0 mm 4 mps 758 mmHg 47%
    14:00 +26°C° 0 mm 3 mps 757 mmHg 48%
    15:00 +26°C° 0 mm 3 mps 757 mmHg 49%
    16:00 +26°C° 0 mm 3 mps 757 mmHg 50%
    17:00 +24°C° 0 mm 3 mps 757 mmHg 56%
    18:00 +21°C° 0 mm 3 mps 757 mmHg 62%
    19:00 +19°C° 0 mm 2 mps 757 mmHg 68%
    20:00 +19°C° 0 mm 2 mps 757 mmHg 70%
    21:00 +18°C° 0 mm 3 mps 757 mmHg 73%
    22:00 +17°C° 0 mm 3 mps 758 mmHg 75%
    23:00 +16°C° 0 mm 3 mps 758 mmHg 76%

    26 August, Monday

    Time Temperature Precipitation Wind Pressure Humidity
    00:00 +16°C° 0 mm 2 mps 757 mmHg 77%
    01:00 +16°C° 0 mm 2 mps 757 mmHg 78%
    02:00 +15°C° 0 mm 2 mps 757 mmHg 80%
    03:00 +14°C° 0 mm 3 mps 757 mmHg 82%
    04:00 +14°C° 0 mm 3 mps 757 mmHg 84%
    05:00 +16°C° 0 mm 3 mps 757 mmHg 81%
    06:00 +17°C° 0 mm 3 mps 757 mmHg 78%
    07:00 +18°C° 0 mm 4 mps 757 mmHg 75%
    08:00 +20°C° 0 mm 4 mps 757 mmHg 69%
    09:00 +22°C° 0 mm 4 mps 757 mmHg 62%
    10:00 +25°C° 0 mm 4 mps 757 mmHg 56%
    11:00 +26°C° 0 mm 4 mps 757 mmHg 53%
    12:00 +27°C° 0 mm 4 mps 757 mmHg 50%
    13:00 +27°C° 0 mm 4 mps 756 mmHg 48%
    14:00 +27°C° 0 mm 4 mps 756 mmHg 49%
    15:00 +27°C° 0 mm 4 mps 756 mmHg 51%
    16:00 +27°C° 0 mm 3 mps 755 mmHg 52%
    17:00 +25°C° 0 mm 3 mps 755 mmHg 59%
    18:00 +22°C° 0 mm 3 mps 755 mmHg 66%
    19:00 +20°C° 0 mm 3 mps 755 mmHg 73%
    20:00 +20°C° 0 mm 3 mps 755 mmHg 76%
    21:00 +19°C° 0 mm 3 mps 755 mmHg 80%
    22:00 +18°C° 0 mm 3 mps 756 mmHg 84%
    23:00 +18°C° 0 mm 3 mps 755 mmHg 86%

    27 August, Tuesday

    Time Temperature Precipitation Wind Pressure Humidity
    00:00 +18°C° 0 mm 3 mps 755 mmHg 89%
    01:00 +17°C° 0 mm 3 mps 755 mmHg 91%
    02:00 +17°C° 0 mm 3 mps 755 mmHg 91%
    03:00 +17°C° 0 mm 3 mps 755 mmHg 91%
    04:00 +17°C° 0 mm 3 mps 755 mmHg 91%
    05:00 +18°C° 0 mm 3 mps 755 mmHg 87%
    06:00 +19°C° 0 mm 3 mps 755 mmHg 82%
    07:00 +20°C° 0 mm 3 mps 755 mmHg 78%
    08:00 +22°C° 0 mm 3 mps 755 mmHg 72%
    09:00 +25°C° 0 mm 4 mps 755 mmHg 65%
    10:00 +27°C° 0 mm 4 mps 755 mmHg 59%
    11:00 +27°C° 0 mm 3 mps 755 mmHg 56%
    12:00 +28°C° 0 mm 3 mps 754 mmHg 52%
    13:00 +29°C° 0 mm 3 mps 754 mmHg 49%
    14:00 +29°C° 0 mm 3 mps 754 mmHg 50%
    15:00 +28°C° 0 mm 3 mps 754 mmHg 50%
    16:00 +28°C° 0 mm 3 mps 754 mmHg 51%
    17:00 +26°C° 0 mm 3 mps 754 mmHg 57%
    18:00 +24°C° 0 mm 3 mps 754 mmHg 63%
    19:00 +21°C° 0 mm 3 mps 754 mmHg 69%
    20:00 +21°C° 0 mm 3 mps 754 mmHg 72%
    21:00 +20°C° 0 mm 3 mps 754 mmHg 75%
    22:00 +19°C° 0 mm 3 mps 754 mmHg 78%
    23:00 +19°C° 0 mm 3 mps 754 mmHg 80%
    Show more